User: anonymous   Login
Location: Unspecified
(0.0000°N, 0.0000°E)
Time: 01:23:26
(UTC+00:00)
Language:

OBJECT E - Orbit

View from above orbital plane
View from above orbital plane
View from above satellite
View from above satellite

Ground track
Ground track

The orbit data is extracted from the following two-line orbital elements,

1 43196U 18015E   18174.58003661 +.00000465 +00000-0 +22303-4 0  9997
2 43196 097.3482 303.3767 0020152 130.8632 229.4355 15.23550284021503
Epoch (UTC): 23 June 2018 13:55:15
Eccentricity: 0.0020152
inclination: 97.3482°
perigee height: 481 km
apogee height: 509 km
right ascension of ascending node: 303.3767°
argument of perigee: 130.8632°
revolutions per day: 15.23550284
mean anomaly at epoch: 229.4355°
orbit number at epoch: 2150

The dashed part of the orbit path shows where the satellite is in the earth's shadow,  

DLR